アトラス彗星

C/2024 S1 ( ATLAS )

English version
Home page
Updated on November 26, 2024

---------------------------------------------------------------------

・ プロフィール

発見日 2024年9月27日
発見光度 15.3等
発見者 Asteroid Terrestrial-Impact Last Alert System (ATLAS) search program

・ 写真集

・ 軌道要素

Epoch 2024 Oct. 17.0 TT = JDT 2460600.5
T 2024 Oct. 28.48622 TT                                 Rudenko
q   0.0079608            (2000.0)            P               Q
z  +0.0114148      Peri.   69.20889     +0.18318402     -0.97353713
 +/-0.0004132      Node   347.20392     -0.95984440     -0.14708030
e   0.9999091      Incl.  141.90903     +0.21246727     +0.17490807
From 300 observations 2024 Sept. 27-Oct. 23, mean residual 0".9.

・ 星図

・ 光度変化

        m1 = 12.0 + 5 logΔ + 8.0 log r

---------------------------------------------------------------------

軌道要素はM.P.E.C. 2024-V117に掲載されたものです。
星図はステラナビゲータ Ver.11 (アストロアーツ) で作成したものです。
光度グラフはComet for Windowsで作成したものです。

---------------------------------------------------------------------

Copyright(C) Seiichi Yoshida (comet@aerith.net). All rights reserved.